[TLELIST] Archives

 

[list_settings.list_name] Current TLEs

June 15th 2013 PST

HST 1 20580U 90037B 13164.82067074 .00000873 00000-0 49945-4 0 2618 2 20580 028.4702 294.9015 0003188 319.4536 172.3240 15.03686362 69195 ISS (ZARYA) 1 25544U 98067A 13166.39516752 .00005696 00000-0 10469-3 0 96 2 25544 051.6483 117.2276 0010825 072.4534 072.7331 15.50796619834429 CXO 1 25867U 99040B 13167.91734866 -.00000768 00000-0 00000+0 0 9139 2 25867 075.4316 339.5610 8558537 277.3731 000.0303 00.37801263 10539 ____________________________________________________________________ These 2-Line ...Continue Reading

[list_settings.list_name] Current TLEs

June 13th 2013 PST

HST 1 20580U 90037B 13163.75160075 .00001016 00000-0 60157-4 0 2601 2 20580 028.4704 301.9100 0003138 308.2990 144.9090 15.03683637 69028 ISS (ZARYA) 1 25544U 98067A 13164.39636279 .00004675 00000-0 87437-4 0 9940 2 25544 051.6480 127.1401 0010899 064.5245 074.3126 15.50769938834118 CXO 1 25867U 99040B 13165.27493085 -.00000694 00000-0 00000+0 0 9128 2 25867 075.4140 339.7134 8558529 277.4048 000.3084 00.37796840 10522 ____________________________________________________________________ These 2-Line ...Continue Reading

[list_settings.list_name] Current TLEs

June 12th 2013 PST

HST 1 20580U 90037B 13162.48470855 .00000964 00000-0 56477-4 0 2599 2 20580 028.4705 310.2153 0003074 294.8892 126.7817 15.03681847 68834 ISS (ZARYA) 1 25544U 98067A 13163.43047921 .00005127 00000-0 95135-4 0 9873 2 25544 051.6478 131.9305 0010950 060.9715 082.0154 15.50761678833963 CXO 1 25867U 99040B 13165.27493085 -.00000694 00000-0 00000+0 0 9128 2 25867 075.4140 339.7134 8558529 277.4048 000.3084 00.37796840 10522 ____________________________________________________________________ These 2-Line ...Continue Reading

[list_settings.list_name] Current TLEs

June 11th 2013 PST

HST 1 20580U 90037B 13160.84092019 .00000970 00000-0 56894-4 0 2588 2 20580 028.4706 320.9915 0003000 277.6632 228.2284 15.03678845 68592 ISS (ZARYA) 1 25544U 98067A 13162.39826804 .00005762 00000-0 10596-3 0 9807 2 25544 051.6470 137.0480 0010802 057.6177 079.0226 15.50752655833801 CXO 1 25867U 99040B 13162.62983837 -.00000755 00000-0 00000+0 0 9110 2 25867 075.3927 339.8530 8561081 277.4468 000.1821 00.37795970 10517 ____________________________________________________________________ These 2-Line ...Continue Reading

[list_settings.list_name] Current TLEs

June 10th 2013 PST

HST 1 20580U 90037B 13160.84092019 .00000970 00000-0 56894-4 0 2588 2 20580 028.4706 320.9915 0003000 277.6632 228.2284 15.03678845 68592 ISS (ZARYA) 1 25544U 98067A 13161.48833453 .00006832 00000-0 12419-3 0 9731 2 25544 051.6462 141.5597 0010629 054.3859 039.0289 15.50744777833664 CXO 1 25867U 99040B 13162.62983837 -.00000755 00000-0 00000+0 0 9110 2 25867 075.3927 339.8530 8561081 277.4468 000.1821 00.37795970 10517 ____________________________________________________________________ These 2-Line ...Continue Reading

[list_settings.list_name] Current TLEs

June 9th 2013 PST

HST 1 20580U 90037B 13159.49290907 .00001027 00000-0 60989-4 0 2576 2 20580 028.4707 329.8285 0002964 261.9339 132.4696 15.03676075 68382 ISS (ZARYA) 1 25544U 98067A 13160.21539352 .00007702 00000-0 13905-3 0 9662 2 25544 051.6467 147.8721 0010677 049.9319 132.4140 15.50729435833467 CXO 1 25867U 99040B 13162.62983837 -.00000755 00000-0 00000+0 0 9110 2 25867 075.3927 339.8530 8561081 277.4468 000.1821 00.37795970 10517 ____________________________________________________________________ These 2-Line ...Continue Reading

[list_settings.list_name] Current TLEs

June 7th 2013 PST

HST 1 20580U 90037B 13157.85113492 .00001114 00000-0 67184-4 0 2567 2 20580 028.4708 340.5905 0003003 241.8474 247.7536 15.03669122 68146 ISS (ZARYA) 1 25544U 98067A 13158.40426719 .00005891 00000-0 10838-3 0 9548 2 25544 051.6472 156.8540 0010747 043.0041 101.9051 15.50694209833188 CXO 1 25867U 99040B 13159.98267014 -.00000911 00000-0 00000+0 0 9100 2 25867 075.3678 340.0303 8564397 277.4693 359.7893 00.37798029 10504 ____________________________________________________________________ These 2-Line ...Continue Reading

[list_settings.list_name] Current TLEs

June 6th 2013 PST

HST 1 20580U 90037B 13155.99243207 .00000983 00000-0 57867-4 0 2557 2 20580 028.4709 352.7746 0003148 217.8873 270.3555 15.03663657 67869 ISS (ZARYA) 1 25544U 98067A 13157.37216615 .00005321 00000-0 98724-4 0 9498 2 25544 051.6473 161.9716 0010578 039.0490 100.3701 15.50678788833028 CXO 1 25867U 99040B 13157.33799670 -.00001097 00000-0 00000+0 0 9099 2 25867 075.3534 340.2004 8566221 277.4918 359.7335 00.37798681 10496 ____________________________________________________________________ These 2-Line ...Continue Reading

[list_settings.list_name] Current TLEs

June 5th 2013 PST

HST 1 20580U 90037B 13155.99243207 .00000983 00000-0 57867-4 0 2557 2 20580 028.4709 352.7746 0003148 217.8873 270.3555 15.03663657 67869 ISS (ZARYA) 1 25544U 98067A 13156.53440024 .00005343 00000-0 99140-4 0 9428 2 25544 051.6477 166.1274 0010614 036.5242 103.0377 15.50669177832891 CXO 1 25867U 99040B 13157.33799670 -.00001097 00000-0 00000+0 0 9099 2 25867 075.3534 340.2004 8566221 277.4918 359.7335 00.37798681 10496 ____________________________________________________________________ These 2-Line ...Continue Reading

[list_settings.list_name] Current TLEs

June 4th 2013 PST

HST 1 20580U 90037B 13154.79375883 .00000891 00000-0 51303-4 0 2546 2 20580 028.4710 000.6327 0003020 205.6494 261.1635 15.03659859 67684 ISS (ZARYA) 1 25544U 98067A 13155.49495887 .00005904 00000-0 10874-3 0 9349 2 25544 051.6479 171.2824 0010548 032.2596 060.9054 15.50658515832732 CXO 1 25867U 99040B 13157.33799670 -.00001097 00000-0 00000+0 0 9099 2 25867 075.3534 340.2004 8566221 277.4918 359.7335 00.37798681 10496 ____________________________________________________________________ These 2-Line ...Continue Reading
  • This mailing list is a public mailing list - anyone may join or leave, at any time.
  • This mailing list is announce-only.

International Space Station (ISS) / Hubble Space Telescope (HST) / Chandra X-Ray Observatory Orbital Data via EMAIL

Privacy Policy:

Private list